Wayne, NE

3:36 AM CDT on August 19, 2017 (GMT -0500)
Wayne Municipal

Weather History for KLCG - March, 2012

Change the Weather History Date:

Friday, March 30, 2012

  Actual Average (KOFK) Record (KOFK)
Temperature  
Mean Temperature 56 °F -  
Max Temperature 77 °F 55 °F 87 °F (1968)
Min Temperature 36 °F 30 °F 10 °F (1944)
Degree Days  
Heating Degree Days 8    
Growing Degree Days 6 (Base 50)    
Moisture  
Dew Point 43 °F    
Average Humidity 68    
Maximum Humidity 100    
Minimum Humidity 24    
Precipitation  
Precipitation 0.00 in - - ()
Sea Level Pressure  
Sea Level Pressure 29.76 in    
Wind  
Wind Speed 4 mph (SW)    
Max Wind Speed 17 mph    
Max Gust Speed 21 mph    
Visibility 8 miles    
Events Fog , Rain    
Averages and records for this station are not official NWS values.
T = Trace of Precipitation, MM = Missing Value Source: NWS Daily Summary

Daily Weather History Graph

Daily Weather History Graph

Search for Another Location

Airport or City:

Trip Planner

Search our weather history database for the weather conditions in past years. The results will help you decide how hot, cold, wet, or windy it might be!

Date:

Astronomy

Mar. 30, 2012 Rise Set
Actual Time 7:13 AM CDT 7:52 PM CDT
Civil Twilight 6:44 AM CDT 8:20 PM CDT
Nautical Twilight 6:11 AM CDT 8:53 PM CDT
Astronomical Twilight 5:36 AM CDT 9:28 PM CDT
Moon 12:14 PM CDT (3/30) 2:34 AM CDT (3/30)
Length of Visible Light 13h 35m
Length of Day
12h 39m
Waxing Crescent, 49% of the Moon is Illuminated
Mar 30
Waxing Crescent
Mar 30
First Quarter
Apr 6
Full
Apr 13
Last Quarter
Apr 21
New

Hourly Weather History & Observations

Time (CDT) Temp. Windchill Dew Point Humidity Pressure Visibility Wind Dir Wind Speed Gust Speed Precip Events Conditions
12:35 AM 45.9 °F 44.6 °F 44.4 °F 95% 29.76 in 10.0 mi West 3.5 mph - N/A   Clear
12:55 AM 51.3 °F - 49.3 °F 93% 29.76 in 10.0 mi West 5.8 mph - N/A   Clear
1:15 AM 48.0 °F - 45.7 °F 92% 29.77 in 10.0 mi Calm Calm - N/A   Clear
1:35 AM 48.4 °F - 46.2 °F 92% 29.77 in 10.0 mi Calm Calm - N/A   Clear
1:55 AM 48.6 °F - 46.9 °F 94% 29.78 in 10.0 mi Calm Calm - N/A   Clear
2:15 AM 48.6 °F - 47.3 °F 95% 29.77 in 10.0 mi WNW 5.8 mph - N/A   Clear
2:35 AM 47.8 °F - 46.8 °F 96% 29.78 in 10.0 mi Calm Calm - N/A   Clear
2:55 AM 46.4 °F - 45.1 °F 95% 29.77 in 10.0 mi Calm Calm - N/A   Clear
3:15 AM 44.2 °F 41.8 °F 43.5 °F 97% 29.78 in 7.0 mi SSW 4.6 mph - N/A   Clear
3:35 AM 43.7 °F - 43.5 °F 99% 29.76 in 7.0 mi Calm Calm - N/A   Clear
3:55 AM 42.1 °F 40.2 °F 42.1 °F 100% 29.77 in 5.0 mi SW 3.5 mph - N/A   Clear
4:15 AM 41.2 °F - 41.2 °F 100% 29.75 in 3.0 mi Calm Calm - N/A   Clear
4:35 AM 41.0 °F - 41.0 °F 100% 29.74 in 0.8 mi Calm Calm - N/A   Mist
4:55 AM 39.7 °F - 39.7 °F 100% 29.74 in 1.0 mi Calm Calm - N/A   Mist
5:15 AM 37.6 °F 34.0 °F 37.6 °F 100% 29.76 in 0.2 mi West 4.6 mph - N/A Fog Fog
5:35 AM 36.5 °F - 36.5 °F 100% 29.76 in 4.0 mi Calm Calm - N/A   Clear
5:55 AM 36.9 °F 33.1 °F 36.9 °F 100% 29.78 in 4.0 mi SW 4.6 mph - N/A   Clear
6:15 AM 38.1 °F 35.7 °F 38.1 °F 100% 29.78 in 5.0 mi WSW 3.5 mph - N/A   Clear
6:35 AM 40.3 °F 37.1 °F 40.3 °F 100% 29.80 in 7.0 mi WSW 4.6 mph - N/A   Clear
6:55 AM 43.0 °F - 43.0 °F 100% 29.80 in 7.0 mi Calm Calm - N/A   Clear
7:15 AM 41.5 °F - 41.5 °F 100% 29.80 in 7.0 mi Calm Calm - N/A   Clear
7:35 AM 40.1 °F - 40.1 °F 100% 29.80 in 5.0 mi Calm Calm - N/A   Mostly Cloudy
7:55 AM 42.4 °F - 42.4 °F 100% 29.80 in 5.0 mi Calm Calm - N/A   Overcast
8:35 AM 47.1 °F - 46.0 °F 96% 29.82 in 10.0 mi Calm Calm - N/A   Clear
8:55 AM 49.8 °F - 47.1 °F 90% 29.82 in 10.0 mi WNW 3.5 mph - N/A   Clear
9:15 AM 53.2 °F - 48.9 °F 85% 29.82 in 10.0 mi WNW 4.6 mph - N/A   Clear
9:35 AM 55.4 °F - 48.4 °F 77% 29.82 in 10.0 mi Calm Calm - N/A   Clear
9:55 AM 56.3 °F - 48.0 °F 74% 29.82 in 10.0 mi Calm Calm - N/A   Mostly Cloudy
10:15 AM 57.9 °F - 48.0 °F 70% 29.81 in 10.0 mi Calm Calm - N/A   Scattered Clouds
10:35 AM 59.0 °F - 45.9 °F 62% 29.81 in 10.0 mi Calm Calm - N/A   Scattered Clouds
10:55 AM 60.6 °F - 46.0 °F 59% 29.81 in 10.0 mi Calm Calm - N/A   Scattered Clouds
11:35 AM 63.7 °F - 46.4 °F 53% 29.80 in 10.0 mi East 3.5 mph - N/A   Clear
11:55 AM 64.8 °F - 46.4 °F 51% 29.80 in 10.0 mi Calm Calm - N/A   Clear
12:15 PM 66.4 °F - 46.2 °F 48% 29.80 in 10.0 mi Calm Calm - N/A   Scattered Clouds
12:35 PM 68.2 °F - 44.8 °F 43% 29.80 in 10.0 mi SSW 3.5 mph - N/A   Scattered Clouds
12:55 PM 70.5 °F - 41.9 °F 35% 29.78 in 10.0 mi SSW 3.5 mph - N/A   Clear
1:15 PM 72.5 °F - 40.3 °F 31% 29.78 in 10.0 mi SSW 5.8 mph - N/A   Clear
1:35 PM 73.2 °F - 39.2 °F 29% 29.77 in 10.0 mi SW 5.8 mph - N/A   Clear
1:55 PM 74.5 °F - 39.4 °F 28% 29.75 in 10.0 mi South 9.2 mph - N/A   Clear
2:15 PM 75.4 °F - 41.4 °F 29% 29.73 in 10.0 mi SE 9.2 mph 16.1 mph N/A   Clear
2:35 PM 77.0 °F - 38.5 °F 25% 29.72 in 10.0 mi SSW 13.8 mph 20.7 mph N/A   Clear
2:55 PM 76.3 °F - 37.0 °F 24% 29.71 in 10.0 mi SSW 13.8 mph 19.6 mph N/A   Clear
3:15 PM 76.5 °F - 37.6 °F 25% 29.71 in 10.0 mi SW 12.7 mph 16.1 mph N/A   Mostly Cloudy
3:35 PM 75.4 °F - 37.8 °F 26% 29.71 in 10.0 mi WSW 10.4 mph - N/A   Overcast
3:55 PM 75.2 °F - 38.1 °F 26% 29.71 in 10.0 mi SSW 9.2 mph - N/A   Overcast
4:15 PM 75.0 °F - 39.0 °F 27% 29.71 in 10.0 mi WSW 15.0 mph - N/A   Overcast
4:35 PM 74.3 °F - 40.8 °F 30% 29.70 in 10.0 mi WSW 10.4 mph - N/A   Overcast
4:55 PM 74.1 °F - 40.5 °F 30% 29.70 in 10.0 mi WSW 8.1 mph - N/A   Overcast
5:35 PM 69.8 °F - 47.7 °F 45% 29.69 in 10.0 mi South 16.1 mph - N/A Rain Light Rain
6:15 PM 71.4 °F - 42.8 °F 36% 29.69 in 10.0 mi SSE 13.8 mph - N/A   Clear
6:35 PM 70.7 °F - 44.8 °F 39% 29.66 in 10.0 mi SSE 17.3 mph - N/A   Scattered Clouds
6:55 PM 69.8 °F - 44.6 °F 40% 29.69 in 10.0 mi SSE 13.8 mph - N/A   Clear
7:15 PM 68.2 °F - 46.6 °F 46% 29.68 in 10.0 mi SSE 11.5 mph 16.1 mph N/A   Clear
7:55 PM 64.0 °F - 46.2 °F 52% 29.70 in 10.0 mi SE 12.7 mph - N/A   Clear
8:15 PM 62.1 °F - 46.0 °F 56% 29.70 in 10.0 mi SE 15.0 mph - N/A   Clear
8:35 PM 60.8 °F - 45.9 °F 58% 29.71 in 10.0 mi SE 13.8 mph - N/A   Clear
8:55 PM 60.1 °F - 45.1 °F 58% 29.72 in 10.0 mi SSE 11.5 mph - N/A   Clear
9:15 PM 59.0 °F - 45.5 °F 61% 29.73 in 10.0 mi SSE 11.5 mph - N/A   Clear
9:35 PM 59.2 °F - 45.9 °F 61% 29.74 in 10.0 mi SE 11.5 mph - N/A   Clear
10:35 PM 55.6 °F - 47.3 °F 74% 29.74 in 10.0 mi SSE 9.2 mph - N/A   Clear
10:55 PM 55.8 °F - 49.5 °F 79% 29.73 in 10.0 mi SSE 12.7 mph - N/A   Clear
11:35 PM 54.7 °F - 50.2 °F 85% 29.74 in 10.0 mi South 8.1 mph - N/A   Clear